Weather History for Key West NAF, FL

Change the Weather History Date:

Saturday, March 8, 2014

  Actual Average Record
Temperature  
Mean Temperature 68 °F -  
Max Temperature 72 °F 76 °F 86 °F (1967)
Min Temperature 64 °F 67 °F 57 °F (2001)
Cooling Degree Days 3    
Growing Degree Days 18 (Base 50)    
Moisture  
Dew Point 57 °F    
Average Humidity 70    
Maximum Humidity 84    
Minimum Humidity 59    
Precipitation  
Precipitation 0.00 in - - ()
Sea Level Pressure  
Sea Level Pressure 30.09 in    
Wind  
Wind Speed 8 mph (NNE)    
Max Wind Speed 10 mph    
Max Gust Speed -    
Visibility 10 miles    
Events      
Averages and records for this station are not official NWS values.
T = Trace of Precipitation, MM = Missing Value Source: NWS Daily Summary

Daily Weather History Graph

Daily Weather History Graph

Search for Another Location

Airport:

Trip Planner

Search our weather history database for the weather conditions in past years. The results will help you decide how hot, cold, wet, or windy it might be!

Date:

Astronomy

Mar. 08, 2014 Rise Set
Actual Time 6:42 AM EST 6:32 PM EST
Civil Twilight 6:19 AM EST 6:55 PM EST
Nautical Twilight 5:53 AM EST 7:21 PM EST
Astronomical Twilight 5:27 AM EST 7:48 PM EST
Moon 12:01 PM EST (3/8) 12:51 AM EST (3/8)
Length of Visible Light 12h 35m
Length of Day
11h 49m
First Quarter, 51% of the Moon is Illuminated
Mar 8
First Quarter
Mar 16
Full
Mar 23
Last Quarter
Mar 30
New
Apr 7
First Quarter

Hourly Weather History & Observations

Time (EST) Temp. Dew Point Humidity Pressure Visibility Wind Dir Wind Speed Gust Speed Precip Events Conditions
12:53 AM 68.0 °F 59.0 °F 73% 30.03 in 10.0 mi North 10.4 mph - N/A   Scattered Clouds
1:53 AM 69.1 °F 57.9 °F 68% 30.02 in 10.0 mi NNW 10.4 mph - N/A   Overcast
2:53 AM 68.0 °F 55.0 °F 63% 30.01 in 10.0 mi North 10.4 mph - N/A   Partly Cloudy
3:53 AM 68.0 °F 54.0 °F 61% 30.01 in 10.0 mi NNW 10.4 mph - N/A   Mostly Cloudy
4:53 AM 66.9 °F 54.0 °F 63% 30.03 in 10.0 mi North 8.1 mph - N/A   Mostly Cloudy
5:53 AM 66.9 °F 54.0 °F 63% 30.05 in 10.0 mi NNW 6.9 mph - N/A   Mostly Cloudy
6:53 AM 66.9 °F 54.0 °F 63% 30.08 in 10.0 mi WNW 5.8 mph - N/A   Mostly Cloudy
7:53 AM 68.0 °F 55.0 °F 63% 30.09 in 10.0 mi North 5.8 mph - N/A   Mostly Cloudy
8:53 AM 66.0 °F 59.0 °F 78% 30.11 in 10.0 mi East 9.2 mph - N/A   Mostly Cloudy
9:46 AM 66.9 °F 59.0 °F 76% 30.13 in 10.0 mi NE 9.2 mph - N/A   Mostly Cloudy
9:53 AM 66.9 °F 59.0 °F 76% 30.13 in 10.0 mi NE 9.2 mph - N/A   Mostly Cloudy
10:53 AM 68.0 °F 57.9 °F 70% 30.13 in 10.0 mi NNE 9.2 mph - N/A   Mostly Cloudy
11:53 AM 68.0 °F 57.9 °F 70% 30.12 in 10.0 mi NE 10.4 mph - N/A   Mostly Cloudy
12:53 PM 71.1 °F 57.9 °F 63% 30.10 in 10.0 mi NE 8.1 mph - N/A   Mostly Cloudy
1:53 PM 72.0 °F 57.0 °F 59% 30.09 in 10.0 mi North 8.1 mph - N/A   Mostly Cloudy
2:53 PM 70.0 °F 57.0 °F 63% 30.07 in 10.0 mi Variable 5.8 mph - N/A   Scattered Clouds
3:53 PM 70.0 °F 55.9 °F 61% 30.07 in 10.0 mi North 8.1 mph - N/A   Scattered Clouds
4:53 PM 68.0 °F 57.0 °F 68% 30.08 in 10.0 mi NNW 6.9 mph - N/A   Scattered Clouds
5:53 PM 66.9 °F 57.0 °F 70% 30.09 in 10.0 mi North 6.9 mph - N/A   Scattered Clouds
6:53 PM 64.9 °F 57.0 °F 75% 30.10 in 10.0 mi North 4.6 mph - N/A   Scattered Clouds
7:53 PM 64.0 °F 57.0 °F 78% 30.11 in 10.0 mi NNE 4.6 mph - N/A   Partly Cloudy
8:53 PM 64.0 °F 57.0 °F 78% 30.12 in 10.0 mi ENE 3.5 mph - N/A   Partly Cloudy
9:53 PM 64.9 °F 57.0 °F 75% 30.14 in 10.0 mi ENE 5.8 mph - N/A   Partly Cloudy
10:53 PM 64.9 °F 57.9 °F 78% 30.14 in 10.0 mi ENE 5.8 mph - N/A   Clear
11:53 PM 64.0 °F 59.0 °F 84% 30.14 in 10.0 mi NE 4.6 mph - N/A   Clear